Location: Newark
(42.7336°N, 84.5467°W)
Time: 03:45:23
(UTC+00:00)

Hubble Space Telescope - Pass Details

Date: 27 September 2020
Orbit: 536 x 540 km, 28.5° (Epoch: 21 October)

Event Time Altitude Azimuth Distance (km) Brightness Sun altitude
Exits shadow 10:41:03 - 216° (SW) 2,282 3.6 -10.1°
Reaches altitude 10° 10:44:03 10° 182° (S) 1,775 3.3 -9.5°
Maximum altitude 10:44:36 10° 174° (S) 1,761 3.4 -9.4°
Drops below altitude 10° 10:45:09 10° 166° (SSE) 1,775 3.5 -9.3°
Sets 10:49:30 0° 123° (ESE) 2,666 5.2 -8.5°
